Time,TemperatureF,DewpointF,PressureIn,WindDirection,WindDirectionDegrees,WindSpeedMPH,WindSpeedGustMPH,Humidity,HourlyPrecipIn,Conditions,Clouds,dailyrainin,SolarRadiationWatts/m^2,SoftwareType,DateUTC
2013-03-09 00:03:00,40.0,22.0,29.85,North,354,3.0,7.0,48,0.00,,,0.00,0.000000,,2013-03-09 05:03:00,
2013-03-09 00:12:00,40.0,22.0,29.85,North,354,3.0,7.0,48,0.00,,,0.00,0.000000,,2013-03-09 05:12:00,
2013-03-09 00:32:00,40.0,22.0,29.86,NNW,342,5.0,10.0,48,0.00,,,0.00,0.000000,,2013-03-09 05:32:00,
2013-03-09 00:43:00,40.0,22.0,29.86,NNW,342,5.0,10.0,48,0.00,,,0.00,0.000000,,2013-03-09 05:43:00,
2013-03-09 00:53:00,40.0,22.0,29.86,NNW,342,5.0,10.0,48,0.00,,,0.00,0.000000,,2013-03-09 05:53:00,
2013-03-09 01:02:00,40.0,22.0,29.86,NNW,342,5.0,10.0,48,0.00,,,0.00,0.000000,,2013-03-09 06:02:00,
2013-03-09 01:11:00,40.0,22.0,29.86,NNW,342,5.0,10.0,48,0.00,,,0.00,0.000000,,2013-03-09 06:11:00,
2013-03-09 01:32:00,36.0,21.0,29.87,West,279,38.0,38.0,53,0.00,,,0.00,0.000000,,2013-03-09 06:32:00,
2013-03-09 01:42:00,36.0,21.0,29.87,West,279,38.0,38.0,53,0.00,,,0.00,0.000000,,2013-03-09 06:42:00,
2013-03-09 01:52:00,36.0,21.0,29.87,West,279,38.0,38.0,53,0.00,,,0.00,0.000000,,2013-03-09 06:52:00,
2013-03-09 02:01:00,36.0,21.0,29.87,West,279,38.0,38.0,53,0.00,,,0.00,0.000000,,2013-03-09 07:01:00,
2013-03-09 02:11:00,36.0,21.0,29.87,West,279,38.0,38.0,53,0.00,,,0.00,0.000000,,2013-03-09 07:11:00,
2013-03-09 02:32:00,37.0,22.0,29.85,North,352,4.0,38.0,54,0.00,,,0.00,0.000000,,2013-03-09 07:32:00,
2013-03-09 02:42:00,37.0,22.0,29.85,North,352,4.0,38.0,54,0.00,,,0.00,0.000000,,2013-03-09 07:42:00,
2013-03-09 02:52:00,37.0,22.0,29.85,North,352,4.0,38.0,54,0.00,,,0.00,0.000000,,2013-03-09 07:52:00,
2013-03-09 03:01:00,37.0,22.0,29.85,North,352,4.0,38.0,54,0.00,,,0.00,0.000000,,2013-03-09 08:01:00,
2013-03-09 03:11:00,37.0,22.0,29.85,North,352,4.0,38.0,54,0.00,,,0.00,0.000000,,2013-03-09 08:11:00,
2013-03-09 03:42:00,36.0,21.0,29.82,North,357,6.0,11.0,53,0.00,,,0.00,0.000000,,2013-03-09 08:42:00,
2013-03-09 03:52:00,36.0,21.0,29.82,North,357,6.0,11.0,53,0.00,,,0.00,0.000000,,2013-03-09 08:52:00,
2013-03-09 04:02:00,36.0,21.0,29.82,North,357,6.0,11.0,53,0.00,,,0.00,0.000000,,2013-03-09 09:02:00,
2013-03-09 04:12:00,36.0,21.0,29.82,North,357,6.0,11.0,53,0.00,,,0.00,0.000000,,2013-03-09 09:12:00,
2013-03-09 04:32:00,35.0,23.0,29.85,NW,314,4.0,10.0,60,0.00,,,0.00,0.000000,,2013-03-09 09:32:00,
2013-03-09 04:42:00,35.0,23.0,29.85,NW,314,4.0,10.0,60,0.00,,,0.00,0.000000,,2013-03-09 09:42:00,
2013-03-09 04:52:00,35.0,23.0,29.85,NW,314,4.0,10.0,60,0.00,,,0.00,0.000000,,2013-03-09 09:52:00,
2013-03-09 05:01:00,35.0,23.0,29.85,NW,314,4.0,10.0,60,0.00,,,0.00,0.000000,,2013-03-09 10:01:00,
2013-03-09 05:11:00,35.0,23.0,29.85,NW,314,4.0,10.0,60,0.00,,,0.00,0.000000,,2013-03-09 10:11:00,
2013-03-09 05:42:00,34.0,20.0,29.85,NNW,330,5.0,12.0,57,0.00,,,0.00,0.000000,,2013-03-09 10:42:00,
2013-03-09 05:52:00,34.0,20.0,29.85,NNW,330,5.0,12.0,57,0.00,,,0.00,0.000000,,2013-03-09 10:52:00,
2013-03-09 06:01:00,34.0,20.0,29.85,NNW,330,5.0,12.0,57,0.00,,,0.00,0.000000,,2013-03-09 11:01:00,
2013-03-09 06:11:00,34.0,20.0,29.85,NNW,330,5.0,12.0,57,0.00,,,0.00,0.000000,,2013-03-09 11:11:00,
2013-03-09 06:32:00,34.0,22.0,29.85,NNW,336,4.0,11.0,61,0.00,,,0.00,0.000000,,2013-03-09 11:32:00,
2013-03-09 06:42:00,34.0,22.0,29.85,NNW,336,4.0,11.0,61,0.00,,,0.00,0.000000,,2013-03-09 11:42:00,
2013-03-09 06:52:00,34.0,22.0,29.85,NNW,336,4.0,11.0,61,0.00,,,0.00,0.000000,,2013-03-09 11:52:00,
2013-03-09 07:02:00,34.0,22.0,29.85,NNW,336,4.0,11.0,61,0.00,,,0.00,0.000000,,2013-03-09 12:02:00,
2013-03-09 07:11:00,34.0,22.0,29.85,NNW,336,4.0,11.0,61,0.00,,,0.00,0.000000,,2013-03-09 12:11:00,
2013-03-09 07:32:00,37.0,24.0,29.87,NNW,348,5.0,10.0,59,0.00,,,0.00,20.000000,,2013-03-09 12:32:00,
2013-03-09 07:42:00,37.0,24.0,29.87,NNW,348,5.0,10.0,59,0.00,,,0.00,20.000000,,2013-03-09 12:42:00,
2013-03-09 07:52:00,37.0,24.0,29.87,NNW,348,5.0,10.0,59,0.00,,,0.00,20.000000,,2013-03-09 12:52:00,
2013-03-09 08:02:00,37.0,24.0,29.87,NNW,348,5.0,10.0,59,0.00,,,0.00,20.000000,,2013-03-09 13:02:00,
2013-03-09 08:11:00,37.0,24.0,29.87,NNW,348,5.0,10.0,59,0.00,,,0.00,20.000000,,2013-03-09 13:11:00,
2013-03-09 08:32:00,45.0,25.0,29.89,SSW,211,4.0,11.0,45,0.00,,,0.00,189.000000,,2013-03-09 13:32:00,
2013-03-09 08:42:00,45.0,25.0,29.89,SSW,211,4.0,11.0,45,0.00,,,0.00,189.000000,,2013-03-09 13:42:00,
2013-03-09 08:52:00,45.0,25.0,29.89,SSW,211,4.0,11.0,45,0.00,,,0.00,189.000000,,2013-03-09 13:52:00,
2013-03-09 09:01:00,45.0,25.0,29.89,SSW,211,4.0,11.0,45,0.00,,,0.00,189.000000,,2013-03-09 14:01:00,
2013-03-09 09:11:00,45.0,25.0,29.89,SSW,211,4.0,11.0,45,0.00,,,0.00,189.000000,,2013-03-09 14:11:00,
2013-03-09 09:32:00,50.0,25.0,29.91,NNE,26,6.0,14.0,38,0.00,,,0.00,391.000000,,2013-03-09 14:32:00,
2013-03-09 09:42:00,50.0,25.0,29.91,NNE,26,6.0,14.0,38,0.00,,,0.00,391.000000,,2013-03-09 14:42:00,
2013-03-09 09:52:00,50.0,25.0,29.91,NNE,26,6.0,14.0,38,0.00,,,0.00,391.000000,,2013-03-09 14:52:00,
2013-03-09 10:02:00,50.0,25.0,29.91,NNE,26,6.0,14.0,38,0.00,,,0.00,391.000000,,2013-03-09 15:02:00,
2013-03-09 10:12:00,50.0,25.0,29.91,NNE,26,6.0,14.0,38,0.00,,,0.00,391.000000,,2013-03-09 15:12:00,
2013-03-09 10:42:00,54.0,24.0,29.90,East,88,4.0,14.0,31,0.00,,,0.00,571.000000,,2013-03-09 15:42:00,
2013-03-09 10:52:00,54.0,24.0,29.90,East,88,4.0,14.0,31,0.00,,,0.00,571.000000,,2013-03-09 15:52:00,
2013-03-09 11:01:00,54.0,24.0,29.90,East,88,4.0,14.0,31,0.00,,,0.00,571.000000,,2013-03-09 16:01:00,
2013-03-09 11:11:00,54.0,24.0,29.90,East,88,4.0,14.0,31,0.00,,,0.00,571.000000,,2013-03-09 16:11:00,
2013-03-09 11:32:00,57.0,25.0,29.89,West,275,5.0,12.0,29,0.00,,,0.00,713.000000,,2013-03-09 16:32:00,
2013-03-09 11:42:00,57.0,25.0,29.89,West,275,5.0,12.0,29,0.00,,,0.00,713.000000,,2013-03-09 16:42:00,
2013-03-09 11:52:00,57.0,25.0,29.89,West,275,5.0,12.0,29,0.00,,,0.00,713.000000,,2013-03-09 16:52:00,
2013-03-09 12:01:00,57.0,25.0,29.89,West,275,5.0,12.0,29,0.00,,,0.00,713.000000,,2013-03-09 17:01:00,
2013-03-09 12:11:00,57.0,25.0,29.89,West,275,5.0,12.0,29,0.00,,,0.00,713.000000,,2013-03-09 17:11:00,
2013-03-09 12:32:00,60.0,25.0,29.88,NNE,17,5.0,15.0,26,0.00,,,0.00,452.000000,,2013-03-09 17:32:00,
2013-03-09 12:42:00,60.0,25.0,29.88,NNE,17,5.0,15.0,26,0.00,,,0.00,452.000000,,2013-03-09 17:42:00,
2013-03-09 12:52:00,60.0,25.0,29.88,NNE,17,5.0,15.0,26,0.00,,,0.00,452.000000,,2013-03-09 17:52:00,
2013-03-09 13:02:00,60.0,25.0,29.88,NNE,17,5.0,15.0,26,0.00,,,0.00,452.000000,,2013-03-09 18:02:00,
2013-03-09 13:11:00,60.0,25.0,29.88,NNE,17,5.0,15.0,26,0.00,,,0.00,452.000000,,2013-03-09 18:11:00,
2013-03-09 13:32:00,62.0,24.0,29.86,North,349,6.0,15.0,23,0.00,,,0.00,466.000000,,2013-03-09 18:32:00,
2013-03-09 13:42:00,62.0,24.0,29.86,North,349,6.0,15.0,23,0.00,,,0.00,466.000000,,2013-03-09 18:42:00,
2013-03-09 13:52:00,62.0,24.0,29.86,North,349,6.0,15.0,23,0.00,,,0.00,466.000000,,2013-03-09 18:52:00,
2013-03-09 14:02:00,62.0,24.0,29.86,North,349,6.0,15.0,23,0.00,,,0.00,466.000000,,2013-03-09 19:02:00,
2013-03-09 14:12:00,62.0,24.0,29.86,North,349,6.0,15.0,23,0.00,,,0.00,466.000000,,2013-03-09 19:12:00,
2013-03-09 14:42:00,62.0,20.0,29.84,NNE,13,6.0,15.0,20,0.00,,,0.00,531.000000,,2013-03-09 19:42:00,
2013-03-09 14:52:00,62.0,20.0,29.84,NNE,13,6.0,15.0,20,0.00,,,0.00,531.000000,,2013-03-09 19:52:00,
2013-03-09 15:02:00,62.0,20.0,29.84,NNE,13,6.0,15.0,20,0.00,,,0.00,531.000000,,2013-03-09 20:02:00,
2013-03-09 15:11:00,62.0,20.0,29.84,NNE,13,6.0,15.0,20,0.00,,,0.00,531.000000,,2013-03-09 20:11:00,
2013-03-09 15:42:00,66.0,23.0,29.82,North,355,3.0,12.0,19,0.00,,,0.00,646.000000,,2013-03-09 20:42:00,
2013-03-09 15:52:00,66.0,23.0,29.82,North,355,3.0,12.0,19,0.00,,,0.00,646.000000,,2013-03-09 20:52:00,
2013-03-09 16:02:00,66.0,23.0,29.82,North,355,3.0,12.0,19,0.00,,,0.00,646.000000,,2013-03-09 21:02:00,
2013-03-09 16:12:00,66.0,23.0,29.82,North,355,3.0,12.0,19,0.00,,,0.00,646.000000,,2013-03-09 21:12:00,
2013-03-09 16:32:00,64.0,20.0,29.81,North,0,4.0,12.0,18,0.00,,,0.00,489.000000,,2013-03-09 21:32:00,
2013-03-09 16:42:00,64.0,20.0,29.81,North,0,4.0,12.0,18,0.00,,,0.00,489.000000,,2013-03-09 21:42:00,
2013-03-09 16:52:00,64.0,20.0,29.81,North,0,4.0,12.0,18,0.00,,,0.00,489.000000,,2013-03-09 21:52:00,
2013-03-09 17:01:00,64.0,20.0,29.81,North,0,4.0,12.0,18,0.00,,,0.00,489.000000,,2013-03-09 22:01:00,
2013-03-09 17:11:00,64.0,20.0,29.81,North,0,4.0,12.0,18,0.00,,,0.00,489.000000,,2013-03-09 22:11:00,
2013-03-09 17:42:00,65.0,20.0,29.81,NNE,14,3.0,13.0,18,0.00,,,0.00,291.000000,,2013-03-09 22:42:00,
2013-03-09 17:52:00,65.0,20.0,29.81,NNE,14,3.0,13.0,18,0.00,,,0.00,291.000000,,2013-03-09 22:52:00,
2013-03-09 18:01:00,65.0,20.0,29.81,NNE,14,3.0,13.0,18,0.00,,,0.00,291.000000,,2013-03-09 23:01:00,
2013-03-09 18:11:00,65.0,20.0,29.81,NNE,14,3.0,13.0,18,0.00,,,0.00,291.000000,,2013-03-09 23:11:00,
2013-03-09 18:32:00,55.0,23.0,29.82,NE,45,2.0,6.0,29,0.00,,,0.00,79.000000,,2013-03-09 23:32:00,
2013-03-09 18:42:00,55.0,23.0,29.82,NE,45,2.0,6.0,29,0.00,,,0.00,79.000000,,2013-03-09 23:42:00,
2013-03-09 18:52:00,55.0,23.0,29.82,NE,45,2.0,6.0,29,0.00,,,0.00,79.000000,,2013-03-09 23:52:00,
2013-03-09 19:02:00,55.0,23.0,29.82,NE,45,2.0,6.0,29,0.00,,,0.00,79.000000,,2013-03-10 00:02:00,
2013-03-09 19:12:00,55.0,23.0,29.82,NE,45,2.0,6.0,29,0.00,,,0.00,79.000000,,2013-03-10 00:12:00,
2013-03-09 19:32:00,46.0,22.0,29.84,ENE,68,1.0,3.0,39,0.00,,,0.00,0.000000,,2013-03-10 00:32:00,
2013-03-09 19:43:00,46.0,22.0,29.84,ENE,68,1.0,3.0,39,0.00,,,0.00,0.000000,,2013-03-10 00:43:00,
2013-03-09 19:52:00,46.0,22.0,29.84,ENE,68,1.0,3.0,39,0.00,,,0.00,0.000000,,2013-03-10 00:52:00,
2013-03-09 20:01:00,46.0,22.0,29.84,ENE,68,1.0,3.0,39,0.00,,,0.00,0.000000,,2013-03-10 01:01:00,
2013-03-09 20:11:00,46.0,22.0,29.84,ENE,68,1.0,3.0,39,0.00,,,0.00,0.000000,,2013-03-10 01:11:00,
2013-03-09 20:42:00,44.0,25.0,29.84,West,279,2.0,2.0,47,0.00,,,-99.99,0.000000,,2013-03-10 01:42:00,
2013-03-09 20:52:00,44.0,25.0,29.84,West,279,2.0,2.0,47,0.00,,,-99.99,0.000000,,2013-03-10 01:52:00,
2013-03-09 21:01:00,44.0,25.0,29.84,West,279,2.0,2.0,47,0.00,,,-99.99,0.000000,,2013-03-10 02:01:00,
2013-03-09 21:11:00,44.0,25.0,29.84,West,279,2.0,2.0,47,0.00,,,-99.99,0.000000,,2013-03-10 02:11:00,
2013-03-09 21:42:00,41.0,26.0,29.85,SW,225,1.0,2.0,54,0.00,,,-99.99,0.000000,,2013-03-10 02:42:00,
2013-03-09 21:52:00,41.0,26.0,29.85,SW,225,1.0,2.0,54,0.00,,,-99.99,0.000000,,2013-03-10 02:52:00,
2013-03-09 22:02:00,41.0,26.0,29.85,SW,225,1.0,2.0,54,0.00,,,-99.99,0.000000,,2013-03-10 03:02:00,
2013-03-09 22:12:00,41.0,26.0,29.85,SW,225,1.0,2.0,54,0.00,,,-99.99,0.000000,,2013-03-10 03:12:00,
2013-03-09 22:32:00,37.0,25.0,29.85,NW,304,2.0,3.0,62,0.00,,,0.00,0.000000,,2013-03-10 03:32:00,
2013-03-09 22:42:00,37.0,25.0,29.85,NW,304,2.0,3.0,62,0.00,,,0.00,0.000000,,2013-03-10 03:42:00,
2013-03-09 22:52:00,37.0,25.0,29.85,NW,304,2.0,3.0,62,0.00,,,0.00,0.000000,,2013-03-10 03:52:00,
2013-03-09 23:01:00,37.0,25.0,29.85,NW,304,2.0,3.0,62,0.00,,,0.00,0.000000,,2013-03-10 04:01:00,
2013-03-09 23:11:00,37.0,25.0,29.85,NW,304,2.0,3.0,62,0.00,,,0.00,0.000000,,2013-03-10 04:11:00,
2013-03-09 23:32:00,37.0,26.0,29.86,SSE,167,41.0,41.0,65,0.00,,,0.00,0.000000,,2013-03-10 04:32:00,
2013-03-09 23:42:00,37.0,26.0,29.86,SSE,167,41.0,41.0,65,0.00,,,0.00,0.000000,,2013-03-10 04:42:00,
2013-03-09 23:52:00,37.0,26.0,29.86,SSE,167,41.0,41.0,65,0.00,,,0.00,0.000000,,2013-03-10 04:52:00,